Preview of NWS' New Version of Forecast
This preview is not operational and should not be used for support decisions.

Regional Weather Roundup (RWR)

Issued by National Weather Service (NWS)

                            
000
ASUS44 KJAN 201710
RWRMS 

MISSISSIPPI HOURLY WEATHER ROUNDUP
NATIONAL WEATHER SERVICE JACKSON MS
1100 AM CST WED FEB 20 2019

NOTE: "FAIR: INDICATES FEW OR NO CLOUDS BELOW 12,000 FEET WITH NO
SIGNIFICANT WEATHER AND/OR OBSTRUCTIONS TO VISIBILITY.

MSZ001>002-007>008-010>013-018>021-025>028-034>036-201800-
NORTHWEST MISSISSIPPI
  
CITY           SKY/WX    TMP DP  RH WIND       PRES   REMARKS
BATESVILLE     CLOUDY    50  50 100 SW7       29.87R                  
CLARKSDALE     CLOUDY    48  48 100 W10       29.91R                  
CLEVELAND      CLOUDY    47  47 100 W10       29.93R                  
GREENWOOD      CLOUDY    51  50  96 W5        29.91R                  
GREENVILLE     CLOUDY    48  44  86 W14       29.93R                  
OLIVE BRANCH   CLOUDY    46  46 100 SW9       29.87R FOG              
OXFORD         CLOUDY    54  54 100 S3        29.88R FOG              
TUNICA           N/A     45  43  93 W9        29.92R                  
WINONA         CLOUDY    55  55 100 W6        29.90R                  
$$

MSZ003>006-009-014>017-022>024-029>033-037>039-201800-
NORTHEAST MISSISSIPPI
  
CITY           SKY/WX    TMP DP  RH WIND       PRES   REMARKS
COLUMBUS AFB   LGT RAIN  57  55  94 SE6       29.91S FOG              
CORINTH        DRIZZLE   57  55  94 S13       29.86R                  
GOLDN TRIANGLE LGT RAIN  57  57 100 SE10      29.92R FOG              
STARKVILLE     CLOUDY    55  55 100 NE3       29.92R                  
TUPELO         LGT RAIN  57  54  89 S12       29.87S                  
$$

MSZ040-058-201800-
CENTRAL MISSISSIPPI
  
CITY           SKY/WX    TMP DP  RH WIND       PRES   REMARKS
JACKSON INTL   CLOUDY    56  54  93 W8        29.93R                  
JACKSON HAWKNS CLOUDY    55  53  93 W8        29.93R                  
MADISON        CLOUDY    54  54 100 NW5       29.92R                  
MERIDIAN KEY   TSTM      64  61  90 N3        29.90R VSB 3/4          
MERIDIAN NAS   TSTM      64  62  93 SE6       29.90R FOG              
RAYMOND        CLOUDY    54  54 100 NW5       29.93R                  
VICKSBURG VKS  PTSUNNY   50  50 100 W5        29.96R                  
$$

MSZ059>079-201800-
SOUTH MISSISSIPPI
  
CITY           SKY/WX    TMP DP  RH WIND       PRES   REMARKS
HATTIESBURG    RAIN      72  70  93 S12G21    29.90S FOG              
LAUREL         CLOUDY   N/A N/A N/A S7        29.89R                  
MCCOMB         CLOUDY    65  61  87 W6        29.91R THUNDER          
NATCHEZ        CLOUDY    50  46  87 NW6       29.97R                  
PINE BELT      TSTM      72  70  94 S10       29.90R FOG              
$$

MSZ080>082-201800-
COASTAL MISSISSIPPI
  
CITY           SKY/WX    TMP DP  RH WIND       PRES   REMARKS
BAY ST LOUIS   CLOUDY    72  70  94 S12G21    29.94R FOG              
BILOXI         FOG       68  68 100 S12       29.94S VSB 1            
PASCAGOULA     CLOUDY    73  69  87 S10       29.95S FOG              
GULFPORT       FOG       67  67 100 S13       29.94R VSB 1/2          
$$

LAZ007>009-015>016-023>026-201800-
NORTHEAST LOUISIANA
  
CITY           SKY/WX    TMP DP  RH WIND       PRES   REMARKS
BASTROP        CLOUDY    46  45  98 W12       29.97R                  
TALLULAH/VBURG CLOUDY    50  45  83 W7        29.96R                  
VIDALIA        CLOUDY    51  47  84 NW7       29.97R                  
$$